Date String (YYYY-MM-DD hh:mm:ss) UTC,Instrument flags,Ambient pressure (hPa),Sample flow (lpm),Bypass flow (lpm),Sample temperature (°C),Ambient temperature (°C),ASC tube jacket temperature (°C),LED temperature (°C),Box temperature (°C),Sample RH (%),Span deviation,Mass concentration (μg/m³),Mass concentration (μg/m³),Mass concentration (μg/m³)
DateTimeUTC,F1_M11,P_M11,Q1_M11,Q2_M11,T1_M11,T2_M11,T3_M11,T4_M11,T5_M11,U1_M11,ZSPAN_M11,X0_M11,X2_M11,X1_M11
2022-08-12 09:00:00,,0830.2,5.00,0.00,29.7,28.7,00.0,38.5,31.7,24.2,0000.0,0011.42,0005.79,0005.00
2022-08-12 09:01:00,,0830.2,5.01,0.00,29.7,28.7,00.0,38.5,31.7,24.1,0000.0,0011.95,0005.86,0005.04
2022-08-12 09:02:00,,0830.2,5.00,0.00,29.8,28.6,00.0,38.5,31.7,24.0,0000.0,0011.91,0005.85,0005.05
2022-08-12 09:03:00,,0830.3,5.00,0.00,29.7,27.9,00.0,38.4,31.5,24.1,0000.0,0011.60,0005.83,0005.05
2022-08-12 09:04:00,,0830.3,4.99,0.00,29.7,27.6,00.0,38.4,31.5,24.1,0000.0,0011.50,0005.88,0005.06
2022-08-12 09:05:00,,0830.2,5.01,0.00,29.6,27.6,00.0,38.4,31.4,24.6,0000.0,0011.01,0005.89,0005.06
2022-08-12 09:06:00,,0830.2,5.00,0.00,29.6,27.6,00.0,38.4,31.4,25.2,0000.0,0011.63,0005.90,0005.06
2022-08-12 09:07:00,,0830.2,4.99,0.00,29.6,27.7,00.0,38.4,31.4,25.0,0000.0,0011.93,0005.93,0005.07
2022-08-12 09:08:00,,0830.3,5.01,0.00,29.6,27.9,00.0,38.4,31.4,24.9,0000.0,0012.42,0005.94,0005.06
2022-08-12 09:09:00,,0830.2,5.01,0.00,29.6,28.0,00.0,38.4,31.5,25.1,0000.0,0012.66,0005.97,0005.06
2022-08-12 09:10:00,,0830.3,4.99,0.00,29.6,28.2,00.0,38.4,31.5,25.0,0000.0,0012.87,0006.03,0005.06
2022-08-12 09:11:00,,0830.3,4.99,0.00,29.6,28.3,00.0,38.4,31.5,25.2,0000.0,0012.54,0006.03,0005.06
2022-08-12 09:12:00,,0830.3,5.00,0.00,29.6,28.4,00.0,38.4,31.6,25.2,0000.0,0012.07,0005.98,0005.05
2022-08-12 09:13:00,,0830.3,5.02,0.00,29.6,28.5,00.0,38.4,31.6,25.3,0000.0,0012.17,0005.95,0005.04
2022-08-12 09:14:00,,0830.4,4.99,0.00,29.7,28.6,00.0,38.4,31.6,25.0,0000.0,0012.30,0005.95,0005.03
2022-08-12 09:15:00,,0830.4,5.00,0.00,29.7,28.6,00.0,38.5,31.7,25.1,0000.0,0012.57,0005.91,0005.02
2022-08-12 09:16:00,,0830.4,5.00,0.00,29.7,28.7,00.0,38.5,31.7,25.1,0000.0,0012.57,0005.88,0005.01
2022-08-12 09:17:00,,0830.4,4.99,0.00,29.8,28.8,00.0,38.5,31.7,25.0,0000.0,0012.03,0005.88,0005.01
2022-08-12 09:18:00,,0830.4,5.02,0.00,29.8,28.2,00.0,38.5,31.6,25.1,0000.0,0012.04,0005.89,0005.00
2022-08-12 09:19:00,,0830.4,4.99,0.00,29.7,27.7,00.0,38.4,31.4,25.1,0000.0,0012.09,0005.90,0005.00
2022-08-12 09:20:00,,0830.4,5.01,0.00,29.6,27.5,00.0,38.4,31.4,25.1,0000.0,0012.17,0005.91,0005.00
2022-08-12 09:21:00,,0830.4,5.01,0.00,29.6,27.6,00.0,38.4,31.3,25.2,0000.0,0012.06,0005.90,0005.00
2022-08-12 09:22:00,,0830.4,4.99,0.00,29.5,27.7,00.0,38.4,31.3,25.1,0000.0,0012.16,0005.92,0005.01
2022-08-12 09:23:00,,0830.3,5.01,0.00,29.5,27.8,00.0,38.4,31.4,24.9,0000.0,0012.37,0005.95,0005.02
2022-08-12 09:24:00,,0830.4,4.99,0.00,29.5,27.9,00.0,38.4,31.4,24.7,0000.0,0012.68,0005.94,0005.02
2022-08-12 09:25:00,,0830.4,5.01,0.00,29.6,28.1,00.0,38.4,31.4,24.6,0000.0,0013.71,0005.94,0005.03
2022-08-12 09:26:00,,0830.4,5.00,0.00,29.6,28.2,00.0,38.4,31.5,24.4,0000.0,0013.84,0006.00,0005.03
2022-08-12 09:27:00,,0830.4,5.00,0.00,29.6,28.3,00.0,38.4,31.5,24.3,0000.0,0013.72,0006.02,0005.03
2022-08-12 09:28:00,,0830.4,4.99,0.00,29.6,28.4,00.0,38.4,31.6,24.1,0000.0,0013.73,0006.01,0005.02
2022-08-12 09:29:00,,0830.4,4.99,0.00,29.7,28.5,00.0,38.4,31.6,24.0,0000.0,0013.43,0006.01,0005.03
2022-08-12 09:30:00,,0830.4,5.00,0.00,29.7,28.6,00.0,38.5,31.7,24.0,0000.0,0013.27,0006.00,0005.03
2022-08-12 09:31:00,,0830.5,5.00,0.00,29.7,28.7,00.0,38.5,31.7,24.2,0000.0,0013.12,0005.96,0005.04
2022-08-12 09:32:00,,0830.5,5.00,0.00,29.7,28.7,00.0,38.5,31.7,24.3,0000.0,0013.17,0005.96,0005.04
2022-08-12 09:33:00,,0830.5,5.00,0.00,29.8,28.8,00.0,38.5,31.8,24.4,0000.0,0013.13,0005.97,0005.04
2022-08-12 09:34:00,,0830.5,5.00,0.00,29.8,28.3,00.0,38.5,31.6,24.5,0000.0,0012.81,0005.96,0005.06
2022-08-12 09:35:00,,0830.6,5.00,0.00,29.7,27.7,00.0,38.4,31.5,24.7,0000.0,0012.67,0006.02,0005.08
2022-08-12 09:36:00,,0830.5,5.00,0.00,29.7,27.6,00.0,38.4,31.4,24.9,0000.0,0012.47,0006.06,0005.10
2022-08-12 09:37:00,,0830.5,5.01,0.00,29.6,27.6,00.0,38.4,31.3,25.3,0000.0,0012.19,0006.06,0005.11
2022-08-12 09:38:00,,0830.5,5.00,0.00,29.6,27.7,00.0,38.4,31.4,25.5,0000.0,0012.59,0006.09,0005.13
2022-08-12 09:39:00,,0830.5,5.00,0.00,29.6,27.8,00.0,38.4,31.4,25.6,0000.0,0012.96,0006.13,0005.16
2022-08-12 09:40:00,,0830.6,5.00,0.00,29.6,28.0,00.0,38.4,31.4,25.8,0000.0,0013.17,0006.19,0005.18
2022-08-12 09:41:00,,0830.5,5.00,0.00,29.6,28.1,00.0,38.4,31.5,25.9,0000.0,0012.79,0006.26,0005.21
2022-08-12 09:42:00,,0830.6,5.00,0.00,29.6,28.2,00.0,38.4,31.5,25.9,0000.0,0012.68,0006.31,0005.24
2022-08-12 09:43:00,,0830.6,5.01,0.00,29.6,28.3,00.0,38.4,31.5,25.8,0000.0,0012.77,0006.38,0005.27
2022-08-12 09:44:00,,0830.6,5.00,0.00,29.6,28.4,00.0,38.4,31.6,25.4,0000.0,0012.89,0006.43,0005.30
2022-08-12 09:45:00,,0830.6,5.00,0.00,29.7,28.5,00.0,38.4,31.6,24.9,0000.0,0012.89,0006.43,0005.33
2022-08-12 09:46:00,,0830.6,5.00,0.00,29.7,28.6,00.0,38.4,31.7,25.2,0000.0,0012.52,0006.44,0005.33
2022-08-12 09:47:00,,0830.6,5.00,0.00,29.7,28.7,00.0,38.5,31.7,25.2,0000.0,0011.77,0006.48,0005.36
2022-08-12 09:48:00,,0830.7,5.01,0.00,29.7,28.7,00.0,38.5,31.7,25.6,0000.0,0011.97,0006.50,0005.39
2022-08-12 09:49:00,,0830.7,5.00,0.00,29.8,28.8,00.0,38.5,31.8,25.5,0000.0,0011.67,0006.46,0005.39
2022-08-12 09:50:00,,0830.7,5.00,0.00,29.8,28.6,00.0,38.5,31.7,25.4,0000.0,0011.44,0006.43,0005.40
2022-08-12 09:51:00,,0830.7,5.01,0.00,29.7,27.8,00.0,38.5,31.5,25.4,0000.0,0012.21,0006.41,0005.40
2022-08-12 09:52:00,,0830.7,4.99,0.00,29.7,27.5,00.0,38.4,31.4,25.5,0000.0,0012.71,0006.38,0005.40
2022-08-12 09:53:00,,0830.6,5.00,0.00,29.6,27.5,00.0,38.4,31.3,25.6,0000.0,0014.02,0006.45,0005.40
2022-08-12 09:54:00,,0830.6,5.00,0.00,29.6,27.5,00.0,38.4,31.3,25.7,0000.0,0014.20,0006.45,0005.40
2022-08-12 09:55:00,,0830.6,4.99,0.00,29.5,27.6,00.0,38.4,31.3,25.7,0000.0,0014.19,0006.43,0005.39
2022-08-12 09:56:00,,0830.6,5.01,0.00,29.5,27.8,00.0,38.4,31.4,26.0,0000.0,0014.36,0006.39,0005.38
2022-08-12 09:57:00,,0830.6,5.00,0.00,29.5,27.9,00.0,38.4,31.4,26.2,0000.0,0014.83,0006.36,0005.36
2022-08-12 09:58:00,,0830.7,5.01,0.00,29.5,28.0,00.0,38.4,31.4,26.0,0000.0,0014.78,0006.33,0005.36
2022-08-12 09:59:00,,0830.7,5.00,0.00,29.6,28.2,00.0,38.4,31.5,25.6,0000.0,0014.53,0006.32,0005.35
